DIAMANT B-P4 DEB

Satellite information

Favourite Embed

Satellite Type and Status

DEBRISIN ORBIT

Key statistics

Satellite DIAMANT B-P4 DEB at a glance.

Uptime

18529

Days in orbit

Revolutions

≈ 14.0

Per day

Orbit

LEO

Low Earth Orbit

Inclination

49.8

Latest

Satellite identification and parameters

Extended collection of information and parameters for DIAMANT B-P4 DEB.

Object identification

Identified? True

Debris? True

Object name: DIAMANT B-P4 DEB

International designator: 1975-010C

Object number (NORAD): 7654

Object ID (CCSDS): 7654

Country: FRANCE (FR)

Current information (Y/N): Y

RCS size: SMALL

Orbital parameters

Period: 103.175 minutes

Inclination: 49.8458 deg

SMA: 7286.906 km

Apoapsis: 1033.944 km

Periapsis: 783.599 km

RAAN: 38.8211 deg

Eccentricy: 0.01717769

Argument of periapsis: 35.4717 deg

Mean anomaly: 325.7465 deg

Mean motion: 13.9568683 rev/day

Mean motion (dot): 0.00000151 rev/day2

B* drag term: 0.00019432645 1/REarth

Two-line elements (TLE)

Creation date: Oct. 28, 2025, 7:11 p.m.

Reference frame: TEME

Reference center: EARTH

Epoch: Oct. 28, 2025, 3:04 p.m. UTC

TLE line 0: 0 DIAMANT B-P4 DEB

TLE line 1: 1 07654U 75010C 25301.62819396 .00000151 00000-0 19433-3 0 9990

TLE line 2: 2 07654 49.8458 38.8211 0171777 35.4717 325.7465 13.95686830577619

Live tracking on map

Real-time ground track for satellite DIAMANT B-P4 DEB.

In-orbit conjunctions

A list of the most updated potential collisions computed for object DIAMANT B-P4 DEB.

Target Orbit TCA Probability of collision Miss distance Type
COSMOS 894 LEO 2024-06-02 01:50:24 0.000879311 390.0 (m) PAYLOAD

Associated space launch

Passive French satellite dedicated to geodetic and geophysical studies

DIAMANT B-P4 DEB was lifted into orbit during the mission ‘Diamant BP4 | Starlette’, on board a Diamant BP4 space rocket.

The launch took place on Feb. 6, 1975, 4:35 p.m. from Diamant Launch Area.

For more information about the launch, click the button.

Launch to space Diamant BP4 | Starlette
Diamant BP4 | Starlette

Agency: N/A

Status: Launch Successful

Launch date: Feb. 6, 1975, 4:35 p.m. UTC

Rocket: Diamant BP4

Launch pad: Diamant Launch Area

Location: Guiana Space Centre, French Guiana

...

Latest news about this satellite

There are no fresh news available about this satellite. Check back as we update our databases every day.


Newsletter sign-up

Weekly statistics, charts and insights to help you stay on top of the space industry.